GEFSSGP_500_meanwind_096.txt.gz
Wind_Speed
10 10 9 9 9 9 8 8 8 8 6 5 3 2 2 2 4 6 8 8 9 11 12 13 13 13 12 12 11 10 9 8 8 8 7 6 5 5 6 6 6 6 5 5 4 4 5 5 5
10 9 9 9 9 8 8 9 9 8 7 5 4 3 2 3 4 6 7 9 9 11 12 13 13 14 13 13 12 11 10 9 8 7 6 5 5 5 5 5 5 5 5 5 4 4 4 4 4
10 9 9 9 9 7 8 9 9 8 7 6 4 4 3 3 4 5 7 8 10 11 12 13 14 14 14 13 13 12 11 10 9 7 6 5 4 4 4 4 4 4 5 4 4 4 4 3 3
10 9 9 9 8 8 8 9 9 9 8 7 5 4 3 4 5 6 6 8 9 11 12 13 14 14 14 13 13 12 11 10 9 8 6 4 3 3 3 3 3 4 4 4 3 3 3 3 3
9 9 9 9 9 9 9 10 10 10 9 8 7 6 5 4 5 6 7 8 10 11 12 14 14 14 14 14 14 13 12 11 10 8 6 4 3 2 2 2 3 3 3 2 2 2 2 2 2
9 9 9 6 8 9 10 10 10 10 9 9 7 6 6 5 5 6 7 9 10 12 13 14 15 16 15 15 15 13 12 11 10 8 6 4 3 2 1 1 2 2 2 2 1 1 1 1 1
9 8 7 6 7 9 10 10 10 10 10 10 9 8 7 6 6 6 7 9 11 12 14 15 16 17 16 16 15 14 13 12 10 9 7 5 3 2 1 1 1 1 1 1 2 2 1 1 1
8 7 7 7 7 8 9 10 11 11 11 11 10 10 9 8 7 7 7 8 11 13 14 16 16 17 17 17 16 15 14 13 11 9 7 5 3 2 1 0 1 1 1 2 2 2 2 1 2
7 6 5 6 7 7 9 10 12 12 11 12 12 13 11 9 8 8 8 8 10 13 15 16 18 18 18 18 17 16 15 13 12 10 8 6 4 3 1 1 1 2 2 2 3 3 2 2 2
7 5 5 7 8 8 9 10 12 12 13 13 14 14 12 10 9 9 9 10 11 13 14 17 19 19 18 18 18 17 16 14 13 11 9 7 5 4 3 2 2 3 3 3 3 3 2 2 2
7 6 7 7 8 8 9 10 12 13 14 14 14 14 13 12 10 9 9 10 12 13 15 17 19 20 20 19 19 18 17 15 14 12 10 8 7 5 4 3 3 4 4 4 3 3 2 2 2
8 8 8 8 8 9 9 11 13 14 14 15 14 14 14 12 11 10 10 11 12 14 16 17 20 21 21 21 20 19 17 16 14 13 11 9 7 6 5 4 4 4 5 4 4 3 3 3 3
9 9 9 9 9 10 11 12 14 15 15 15 15 14 14 13 12 11 11 12 13 14 16 19 22 23 23 22 21 19 18 16 15 13 11 10 8 7 5 4 4 5 5 4 4 4 4 4 4
9 10 10 10 10 10 12 13 15 16 16 16 16 15 14 13 13 12 11 11 13 15 16 19 21 24 25 24 23 21 19 18 16 14 12 10 9 7 5 4 4 4 4 4 4 4 4 4 4
10 10 10 10 11 11 12 13 16 16 17 17 17 16 15 14 13 12 12 11 12 13 15 18 20 23 24 23 23 22 20 19 17 15 13 11 9 8 6 4 3 3 3 3 4 4 3 3 3
10 10 10 12 12 12 12 13 16 17 18 18 18 17 16 14 13 12 12 13 12 12 14 18 19 21 23 24 24 23 22 20 18 16 14 12 10 8 6 4 3 3 3 3 3 3 3 3 3
11 10 11 12 12 11 12 14 17 18 18 19 19 18 16 15 13 13 12 12 11 11 12 17 19 21 23 25 25 23 22 21 19 17 15 13 11 8 6 5 4 3 3 3 3 2 2 2 2
12 11 11 12 12 11 12 14 18 18 19 18 18 17 16 14 12 13 12 11 10 9 12 15 19 21 23 24 24 23 23 21 20 18 15 13 11 9 7 6 4 3 3 3 3 2 2 2 2
12 11 11 12 12 11 12 14 16 17 17 16 16 16 15 13 12 11 11 10 9 9 11 15 18 21 22 23 23 24 23 21 20 19 16 14 12 10 8 7 6 4 3 4 3 3 2 2 2
12 11 11 12 12 11 11 13 15 15 16 15 15 15 14 13 11 10 10 9 8 9 11 13 17 20 21 21 23 24 23 22 21 20 17 15 13 11 9 8 7 6 5 5 4 4 3 3 2
12 12 12 11 10 10 11 12 14 15 15 15 15 15 14 13 13 12 10 8 8 9 10 13 16 19 21 22 22 23 22 22 22 19 18 16 14 12 10 9 8 7 6 6 5 5 4 3 3
13 13 12 10 9 10 11 11 14 15 16 15 15 15 14 14 13 11 9 7 7 8 10 12 15 18 21 23 22 22 22 22 22 20 18 17 15 14 12 10 9 8 8 7 6 6 5 4 4
14 14 12 10 9 9 11 11 13 15 16 15 14 14 14 14 12 11 9 6 6 6 8 11 14 17 20 23 22 22 22 23 23 20 18 17 16 15 13 12 11 10 9 9 8 7 7 6 5
14 13 12 10 9 9 10 10 11 14 14 13 13 14 13 13 11 11 9 6 4 4 7 10 13 15 18 21 21 22 22 23 23 21 19 18 17 15 14 14 12 12 11 10 10 9 8 7 7
15 13 11 9 9 10 11 10 11 13 12 11 13 13 12 12 11 11 9 7 5 4 5 9 12 14 15 18 20 20 22 22 22 21 20 19 18 16 15 15 14 13 12 12 11 11 11 10 10
16 15 13 11 10 10 11 10 11 11 11 11 12 13 12 12 11 11 10 7 5 4 5 8 10 12 14 17 19 20 20 20 20 21 20 20 18 17 16 15 15 14 14 13 13 13 13 13 13
18 17 15 15 13 10 10 11 11 11 11 11 12 12 11 11 12 11 10 7 5 4 4 6 8 11 13 15 18 19 20 20 20 21 20 20 19 17 16 16 16 16 15 16 16 15 15 15 15
19 18 18 16 13 12 11 11 11 12 12 11 11 12 11 10 10 10 10 8 6 4 3 4 7 10 12 14 17 18 19 19 19 19 19 20 19 17 17 17 18 18 17 18 18 18 18 18 18
19 19 18 17 16 14 12 12 13 12 11 11 11 11 10 10 9 9 9 8 6 4 3 3 5 8 10 13 15 16 17 18 19 19 19 19 19 18 18 18 19 19 19 19 19 20 20 21 21
21 20 20 18 17 16 14 13 14 12 11 11 11 10 10 9 9 10 9 8 6 5 3 2 3 5 8 10 12 13 14 16 16 17 18 19 19 19 19 19 19 19 19 20 21 21 22 23 24

GEFSSGP_500_meanwind_102.txt.gz
Wind_Speed
10 10 9 8 9 13 11 10 11 12 11 11 9 9 9 9 10 9 8 9 9 10 11 11 11 12 11 10 9 8 7 7 7 6 5 3 2 1 1 1 2 2 2 1 1 1 1 1 1
9 9 8 8 14 13 10 11 13 14 13 12 10 9 9 9 9 10 10 11 10 11 11 12 12 12 12 11 10 9 8 8 8 7 5 4 2 1 0 1 1 1 2 1 1 1 1 1 0
8 7 8 11 13 11 10 12 13 14 13 13 11 10 9 9 9 10 10 10 10 11 12 12 13 13 12 12 11 9 9 9 8 7 6 4 3 2 1 0 1 1 1 1 1 1 0 0 0
7 7 9 12 10 8 9 12 13 14 13 13 12 11 10 11 11 11 10 11 10 10 12 13 13 13 12 12 11 10 9 9 9 8 7 5 4 3 1 1 1 1 1 1 1 1 1 1 1
6 6 10 10 6 6 11 12 13 13 13 12 13 13 10 10 11 11 11 12 11 10 12 13 13 13 13 12 11 11 10 10 9 8 8 6 5 4 2 1 1 1 1 1 1 1 1 1 2
5 7 10 9 5 7 11 12 12 13 13 13 14 15 12 11 11 11 12 12 11 11 12 13 14 14 14 13 12 12 11 10 10 9 8 7 5 4 3 2 2 2 1 1 1 2 2 2 2
5 7 8 6 5 8 10 12 11 12 14 13 13 15 14 12 11 11 12 13 12 12 13 14 14 15 15 14 14 13 13 12 11 10 9 7 6 5 4 3 2 2 2 2 2 2 2 2 3
5 5 6 1 3 8 11 12 12 13 14 14 14 16 15 14 13 13 13 12 12 11 13 15 15 16 16 16 15 15 14 13 12 11 10 8 6 5 4 4 3 3 2 2 3 3 2 3 3
5 6 4 3 4 8 10 11 12 14 14 15 15 16 16 16 15 14 14 13 13 11 12 15 16 16 16 17 16 16 15 14 13 12 11 9 8 7 6 5 4 4 3 3 3 3 3 3 3
3 3 3 3 7 9 10 11 12 13 16 18 20 18 16 17 16 15 14 13 14 13 13 15 15 16 17 18 18 17 16 15 13 12 12 10 9 8 7 6 5 4 4 4 4 4 3 3 3
1 0 3 6 9 9 9 10 12 13 16 19 20 20 20 19 17 16 14 14 14 14 14 15 15 16 18 19 19 19 17 16 14 13 12 11 10 9 7 7 6 5 5 5 4 4 4 3 3
5 4 5 7 9 9 9 10 11 13 15 19 21 22 21 20 18 16 15 15 15 15 15 16 16 16 17 19 20 20 18 17 15 13 12 11 10 9 7 7 6 6 5 5 5 4 4 4 3
8 7 7 8 9 10 11 11 13 14 16 20 21 22 22 20 18 16 16 16 15 15 16 17 17 17 17 19 21 20 18 18 16 14 13 11 10 9 8 7 6 6 5 5 5 4 4 4 3
6 8 9 8 8 10 12 11 14 16 16 20 21 22 22 20 19 17 17 17 15 16 17 17 18 18 19 20 20 21 19 18 16 15 13 12 10 9 8 7 6 5 5 5 4 4 3 3 3
6 6 7 6 7 11 13 13 16 18 18 20 22 21 21 20 20 18 17 16 16 16 17 16 17 17 19 20 20 20 20 18 17 16 14 12 10 9 8 7 6 5 5 4 4 3 3 3 3
6 6 7 7 8 11 13 15 18 19 19 21 23 22 20 21 20 18 16 15 16 15 15 14 15 17 18 20 21 20 20 18 17 16 14 13 11 9 8 7 6 5 4 4 4 3 2 2 2
6 9 9 10 12 13 13 14 19 20 21 23 23 22 21 21 20 18 16 15 15 13 13 13 13 15 16 18 19 20 19 19 18 17 15 14 12 10 8 8 6 5 4 4 3 2 2 2 1
7 9 10 11 13 14 15 14 18 19 21 23 23 22 21 21 19 17 16 15 14 12 12 12 12 14 15 16 18 19 20 19 19 18 16 15 13 11 9 8 7 5 4 4 3 3 2 2 1
11 13 14 14 14 16 16 15 17 18 20 21 22 21 21 20 19 17 16 15 14 12 11 11 11 13 16 16 16 18 18 19 19 19 18 16 14 11 10 9 7 6 5 4 3 3 2 1 1
16 16 14 15 14 15 17 14 16 18 19 20 21 20 20 20 19 17 16 14 13 11 10 10 10 12 14 15 16 17 18 19 19 19 18 16 15 12 10 9 8 6 5 5 4 3 3 2 1
16 15 14 15 15 15 16 15 17 18 20 18 20 19 20 19 18 17 15 13 12 11 10 10 10 11 13 15 16 17 18 19 19 19 19 18 16 13 12 10 9 8 7 6 5 4 4 3 2
15 14 15 16 16 15 15 17 17 19 18 18 19 19 19 18 18 17 15 13 12 10 9 10 11 11 12 14 16 18 18 18 19 19 19 18 16 14 13 11 10 9 9 8 7 6 5 4 3
15 15 16 16 16 15 15 15 15 16 18 19 18 19 18 17 16 15 14 13 11 10 9 10 9 10 12 14 15 17 18 18 19 19 19 18 17 16 14 13 12 12 11 9 8 8 7 6 5
15 16 16 14 14 16 14 14 13 14 18 19 18 18 17 16 16 15 14 13 11 9 9 8 9 9 11 13 14 16 17 17 18 18 18 18 17 16 15 14 14 13 12 11 10 10 9 8 8
14 15 13 12 15 17 16 16 12 11 17 18 18 18 16 15 15 14 13 13 10 8 7 7 8 9 10 12 13 14 16 17 18 19 19 18 18 16 15 15 16 15 14 13 13 12 11 11 10
14 15 14 14 17 20 19 14 9 10 15 17 17 16 15 14 14 13 13 12 11 8 7 5 6 9 10 11 12 13 15 17 18 19 19 19 18 17 17 17 16 16 16 15 15 14 14 14 14
14 15 14 17 17 21 20 15 9 12 14 16 15 15 14 14 13 13 12 12 11 9 7 5 6 8 9 10 12 13 14 16 17 18 19 19 18 18 18 18 17 17 17 17 17 16 16 16 17
15 15 15 18 18 18 18 19 16 15 13 15 16 14 14 13 13 12 12 11 11 9 7 6 6 8 9 10 12 12 13 15 17 17 18 18 18 19 19 20 19 19 18 18 18 18 18 19 19
14 15 17 18 18 18 19 22 19 15 12 13 16 17 15 14 12 12 12 11 12 10 7 5 5 5 7 9 10 11 12 14 17 17 17 18 18 19 20 21 21 21 21 20 20 20 20 20 21
15 17 18 19 19 20 19 22 21 14 12 15 16 18 17 14 12 11 11 11 11 10 8 6 5 4 5 6 7 8 11 13 14 16 16 17 18 19 20 21 21 22 22 22 22 22 22 22 22

GEFSSGP_500_meanwind_108.txt.gz
Wind_Speed
6 7 8 8 9 11 15 17 17 16 16 14 14 12 11 10 8 4 3 2 2 4 5 5 6 6 6 6 5 4 3 3 3 4 5 5 5 6 6 5 4 4 3 3 2 2 2 2 2
6 6 7 8 9 11 15 17 17 17 16 15 14 13 12 9 8 6 4 2 2 3 5 6 6 7 7 7 6 6 5 4 4 4 5 5 6 6 6 5 5 4 3 3 2 2 2 2 2
5 6 6 6 8 11 12 15 18 18 17 16 16 14 12 10 8 6 4 2 2 3 4 6 7 7 8 8 7 7 6 5 5 4 5 5 6 6 6 6 5 4 3 3 3 2 2 2 2
4 5 4 5 7 10 12 14 17 18 17 17 17 14 12 11 9 8 5 4 3 3 5 6 8 8 8 9 8 8 7 6 5 5 5 5 6 6 6 6 5 4 4 3 3 3 3 2 2
3 4 3 4 7 9 11 13 17 18 18 17 18 16 14 13 11 9 7 5 4 4 5 7 9 9 10 10 9 9 8 7 6 5 5 5 6 6 6 6 5 4 4 4 4 3 3 3 2
2 1 0 4 7 8 9 12 15 17 18 18 17 17 15 13 12 11 8 6 4 5 6 7 9 10 11 11 11 10 9 8 7 6 5 5 6 6 6 6 5 5 4 4 4 4 3 3 2
1 2 1 3 6 7 7 11 14 17 18 17 17 18 16 15 14 13 10 8 6 4 5 7 9 10 11 12 12 11 10 9 8 7 6 6 6 6 6 5 5 5 5 4 4 3 3 3 2
2 2 1 2 4 6 8 11 13 16 16 16 17 19 19 17 15 13 11 9 6 5 6 7 10 10 12 12 13 13 11 10 9 8 7 7 6 6 6 5 5 5 5 5 4 4 3 3 2
2 2 2 0 3 6 9 12 15 15 16 18 19 20 20 18 16 14 12 9 7 6 8 8 9 11 12 13 14 14 12 11 10 9 8 8 7 7 6 6 6 5 5 5 4 4 3 2 2
5 5 4 2 3 5 8 12 14 14 16 17 19 21 21 20 17 15 12 9 9 7 7 8 9 11 13 14 15 15 14 13 11 10 9 8 8 7 7 6 6 5 5 5 5 4 3 2 2
7 8 7 5 3 6 9 11 12 14 16 17 18 21 21 21 19 16 13 10 9 9 8 8 9 12 14 16 16 16 15 14 13 11 10 9 8 8 7 6 5 5 5 5 5 4 4 2 2
10 10 9 7 5 7 9 10 11 13 16 17 19 21 20 20 18 16 14 11 9 10 10 9 11 12 14 15 16 17 16 15 14 13 11 10 8 8 7 6 5 5 5 5 5 4 4 2 2
11 11 9 8 8 8 8 8 11 13 16 18 20 20 22 21 19 17 15 12 11 10 10 10 11 12 14 15 16 17 17 17 16 14 13 11 9 8 7 6 5 5 4 4 4 4 4 3 2
11 10 8 7 7 7 8 8 10 14 17 19 20 21 22 20 20 18 15 12 11 10 10 11 11 12 14 15 16 17 17 17 16 15 14 12 10 8 7 6 5 4 4 3 3 4 3 3 3
9 8 6 5 5 6 7 8 10 14 17 20 21 21 21 20 20 18 16 14 11 10 11 12 11 12 13 15 16 16 18 18 18 16 14 13 11 10 9 7 6 4 4 3 3 3 3 3 2
8 6 4 3 4 6 8 9 11 15 18 20 21 21 21 20 20 20 17 14 11 10 11 11 11 12 13 15 16 16 17 19 19 17 15 14 12 11 9 7 6 5 4 3 3 3 3 3 2
8 8 7 6 5 7 10 12 13 17 19 21 20 21 21 20 20 19 15 14 12 11 10 10 9 11 12 14 15 16 16 18 19 17 15 14 13 12 10 8 7 6 5 4 3 3 3 3 3
11 11 10 8 6 9 12 13 14 18 20 21 20 19 20 20 19 17 14 14 12 11 10 9 9 10 12 12 13 16 16 18 18 18 16 15 14 12 11 9 8 7 6 5 4 3 3 3 3
15 13 11 10 9 12 13 16 17 18 20 21 20 19 18 19 17 15 14 13 12 10 9 7 9 8 9 11 12 15 17 18 18 17 17 15 15 14 12 10 9 8 7 6 5 5 4 3 3
15 13 11 12 12 14 16 18 18 19 20 20 18 17 16 16 15 15 14 13 12 11 10 7 6 8 9 12 12 14 15 17 17 18 18 17 15 14 13 12 11 9 8 7 6 6 5 4 4
14 12 12 13 14 16 19 20 19 18 19 18 15 14 14 14 13 14 14 13 11 10 8 7 5 6 9 12 13 13 14 15 16 17 18 17 16 15 15 14 13 11 10 9 8 7 6 5 5
14 12 15 16 17 18 20 21 19 19 17 16 14 12 12 12 12 12 13 13 11 9 7 6 5 6 9 11 13 14 14 15 17 17 18 17 17 17 16 15 14 13 12 11 10 9 8 7 7
13 14 16 18 19 19 19 20 19 18 17 15 14 10 11 11 11 12 12 12 10 8 5 5 6 7 8 11 12 14 15 16 17 18 18 18 17 17 17 17 16 15 13 12 11 11 10 9 8
14 15 17 19 19 19 17 18 17 17 16 16 13 11 10 10 11 11 12 12 10 7 5 4 5 7 8 10 12 13 15 16 18 18 19 19 18 18 18 18 17 16 15 14 13 13 12 11 10
14 16 17 17 17 15 16 18 17 17 18 17 13 9 7 9 11 10 11 11 9 7 5 4 4 6 7 10 12 13 14 16 18 19 19 20 20 20 19 19 18 17 16 15 15 15 14 13 12
11 14 16 17 15 14 16 17 16 17 17 15 12 7 5 7 9 10 10 10 9 8 6 5 5 6 8 9 11 12 13 16 17 18 19 19 21 21 20 20 19 18 17 17 17 17 16 15 15
12 14 15 17 17 17 17 16 14 14 13 11 9 7 5 6 7 9 9 10 9 7 6 5 4 4 6 8 11 13 13 15 16 17 18 19 21 21 21 20 20 20 19 19 19 19 18 17 17
12 12 15 17 18 19 18 17 16 14 12 10 9 7 6 5 5 6 8 9 9 8 7 6 4 4 5 7 9 11 13 14 16 18 18 19 21 21 20 20 21 21 20 20 20 20 19 19 19
13 13 15 17 18 20 20 19 17 17 14 14 11 8 7 6 6 7 7 8 9 8 7 6 4 4 5 6 8 9 11 12 15 17 18 18 19 20 20 20 20 21 22 22 21 21 21 21 21
17 16 17 18 19 20 21 20 20 19 17 15 12 9 7 7 7 7 7 7 7 8 7 6 4 4 5 6 7 9 11 12 13 15 17 17 17 18 19 20 20 20 21 22 23 23 23 23 23

GEFSSGP_500_meanwind_114.txt.gz
Wind_Speed
8 8 7 8 10 12 16 18 19 19 19 18 16 15 13 12 9 5 2 0 2 3 4 5 5 5 5 4 4 4 5 5 6 6 6 6 7 7 7 7 7 6 6 6 5 5 5 4 4
8 7 6 7 9 12 15 17 19 20 19 18 18 16 15 13 10 7 4 2 0 2 4 6 6 5 5 5 4 3 3 4 4 4 5 6 6 7 7 7 7 7 6 6 6 5 5 4 4
7 7 6 6 8 11 13 16 18 19 18 18 18 17 16 14 12 8 6 3 1 2 4 5 6 6 6 5 4 3 3 3 3 3 4 5 6 6 7 7 7 7 6 6 6 5 5 4 4
5 5 5 6 7 9 12 14 16 16 17 18 18 18 16 14 13 10 7 4 2 3 5 6 6 7 6 6 5 4 3 2 2 2 3 4 5 6 6 7 7 7 6 6 6 5 4 4 4
5 4 4 5 6 7 10 13 15 16 16 18 18 18 17 15 13 11 8 6 4 3 5 7 8 8 8 7 6 5 3 2 2 1 2 3 4 5 6 6 6 6 6 6 5 5 4 4 3
5 5 4 5 5 6 8 11 14 15 15 16 17 18 18 16 15 13 10 7 5 4 4 6 8 9 8 8 7 6 4 3 3 1 1 2 4 4 5 5 6 6 5 5 4 4 3 3 3
5 6 5 5 4 5 7 10 12 14 15 16 16 17 18 17 16 15 12 9 5 4 4 6 8 9 9 9 8 7 6 5 3 2 1 1 3 4 4 5 5 5 5 4 4 4 3 3 3
7 7 6 6 5 6 8 9 11 12 14 15 16 17 18 18 18 16 14 11 7 5 5 6 8 10 10 10 10 9 8 7 5 4 2 1 2 3 4 4 4 4 4 4 3 3 3 2 2
8 8 7 7 7 7 8 8 9 10 12 14 15 17 18 19 18 17 15 11 9 7 7 7 8 10 11 11 11 10 9 8 7 5 4 3 2 3 4 4 4 4 3 3 3 3 3 2 1
9 9 9 9 10 10 9 9 8 8 11 13 15 17 18 19 19 18 16 13 10 8 7 7 9 11 12 12 12 11 11 10 8 7 5 4 3 3 4 4 3 3 3 3 3 3 2 2 1
10 9 10 11 12 12 10 9 8 8 10 13 15 18 20 20 20 19 17 14 11 9 7 7 9 10 12 13 13 13 13 12 10 8 7 6 4 4 4 3 3 3 2 2 3 3 2 2 1
10 11 11 12 13 12 11 9 9 9 10 12 14 17 20 21 20 18 16 14 11 9 9 9 9 10 12 13 14 14 14 14 12 11 9 7 6 5 4 3 3 3 2 2 3 3 3 2 2
9 10 10 10 11 12 11 9 9 9 10 12 14 16 19 20 19 18 18 15 13 10 8 8 10 12 13 14 14 14 15 15 14 13 10 9 7 5 4 4 3 3 3 2 3 3 3 2 2
9 9 9 9 11 11 10 9 9 9 10 12 13 16 18 19 19 18 17 16 14 11 7 8 9 12 13 14 15 15 15 16 16 14 12 11 9 7 6 5 5 4 3 3 3 3 3 2 2
10 9 9 9 11 11 10 9 9 9 10 12 13 16 17 17 17 18 18 15 13 10 7 8 9 12 13 14 15 16 16 17 17 16 15 13 12 9 7 7 6 5 5 4 4 3 2 2 2
11 10 10 10 12 13 12 11 11 10 10 12 14 15 16 17 17 18 17 14 13 11 10 10 9 11 14 15 16 16 16 17 18 18 16 15 13 11 10 8 7 6 6 5 3 3 2 2 2
13 12 12 12 13 14 14 12 11 11 12 13 14 15 16 17 17 18 17 14 13 11 10 10 9 9 12 15 15 16 18 19 18 18 17 17 15 13 12 10 8 8 7 5 4 3 3 3 3
15 14 13 13 15 16 16 14 12 12 12 13 14 15 16 17 17 17 16 15 13 11 10 9 8 8 11 14 15 16 18 19 18 17 18 17 16 14 13 11 10 9 8 7 5 4 3 3 3
16 15 15 15 17 18 18 16 15 13 13 13 14 15 16 17 17 17 17 15 14 12 11 9 8 8 9 12 15 16 18 19 19 18 19 18 17 15 14 12 11 10 9 8 7 5 4 3 3
16 16 16 17 20 20 19 17 16 15 14 14 14 14 15 16 17 17 17 16 15 13 10 8 7 7 10 12 15 17 19 20 19 18 19 18 18 17 15 13 12 12 11 9 8 7 5 4 4
17 17 18 19 21 21 20 18 16 15 14 14 13 14 14 15 16 16 16 15 14 13 11 10 9 9 10 11 12 15 16 18 19 18 19 18 18 17 16 15 13 13 12 11 10 8 7 6 5
17 18 19 20 21 21 20 18 15 15 14 13 13 13 13 15 16 16 16 15 14 13 11 8 7 8 10 11 12 14 15 16 17 19 20 19 18 17 16 16 14 14 14 13 12 10 9 8 8
18 20 20 21 21 20 19 18 15 14 14 14 14 14 14 15 15 15 15 15 14 12 10 7 6 7 9 11 12 13 14 15 18 19 19 19 19 18 18 17 16 15 15 14 13 12 11 10 9
19 20 21 21 20 19 18 17 14 13 13 14 14 15 14 14 14 14 14 14 13 11 9 7 6 6 7 10 11 11 13 15 17 19 20 20 19 19 19 19 17 17 16 16 15 14 14 13 12
20 20 21 20 19 17 16 15 13 12 12 12 12 13 12 12 12 12 13 13 12 11 9 7 7 7 8 9 10 11 12 14 16 18 19 20 20 19 20 19 19 18 18 18 17 16 16 15 15
20 20 19 19 17 15 14 13 12 11 11 11 11 10 11 10 11 12 13 12 12 11 9 8 7 7 8 8 9 11 12 14 15 16 18 20 21 21 20 20 20 19 19 19 18 18 18 17 17
20 19 18 18 17 15 14 13 11 11 11 11 11 10 10 10 10 11 11 11 11 11 9 8 7 8 8 9 10 12 13 14 15 16 17 19 21 21 21 21 21 21 20 20 20 19 19 19 19
20 19 18 17 16 15 14 12 12 12 10 10 10 10 10 11 11 11 11 11 11 11 10 8 8 7 8 8 9 11 13 14 15 17 18 18 20 21 21 20 20 21 21 21 21 21 21 21 21
20 19 19 18 17 16 15 13 12 12 11 11 12 12 11 11 11 11 11 11 10 10 9 7 7 7 6 7 8 10 11 13 13 15 17 18 19 20 20 20 20 20 20 21 21 22 22 23 23
22 20 19 18 17 17 16 15 13 13 12 12 11 11 10 9 10 10 10 10 10 9 9 7 7 7 6 7 7 8 9 12 13 14 15 15 16 18 19 20 20 20 19 20 21 22 23 23 24

GEFSSGP_500_meanwind_120.txt.gz
Wind_Speed
13 13 13 13 15 15 14 13 13 14 14 13 13 12 12 11 9 6 4 4 5 6 8 8 9 9 9 8 8 8 9 9 10 10 9 9 9 9 8 8 8 7 7 6 6 5 5 5 5
13 12 12 13 15 11 12 12 13 13 13 13 12 12 12 11 9 6 3 3 4 5 7 8 9 9 9 9 8 8 8 9 9 9 9 8 8 8 8 8 7 7 6 6 5 5 5 4 4
12 11 11 12 12 9 10 10 10 11 12 12 13 12 12 11 9 6 4 2 3 5 6 8 9 9 9 9 8 8 8 8 8 8 8 8 8 8 8 7 7 7 6 6 5 5 4 4 4
11 11 10 10 8 8 9 9 9 10 11 12 13 13 12 11 9 7 4 2 1 3 6 7 9 9 9 9 8 7 8 8 7 8 7 7 7 7 7 7 7 6 6 5 5 5 4 4 4
11 11 11 7 5 7 8 8 8 10 11 12 12 12 12 11 10 8 6 3 1 2 5 7 9 9 10 9 9 8 8 8 7 7 7 6 6 6 7 6 6 6 5 5 5 4 4 4 4
10 11 9 5 5 6 7 8 8 9 10 10 11 12 12 12 11 9 7 5 3 2 4 7 9 10 10 10 9 9 9 8 8 7 6 6 5 6 6 6 5 5 4 4 4 4 4 3 3
9 9 7 6 5 6 7 7 7 7 8 9 10 11 12 13 13 11 9 7 4 3 4 6 9 10 11 11 10 10 10 9 9 7 6 6 5 5 5 5 4 4 4 4 4 4 3 3 2
8 8 7 6 5 5 7 7 6 7 7 8 9 11 12 13 13 13 11 8 6 4 5 6 9 10 11 11 11 11 10 10 9 8 7 6 5 5 4 4 4 3 3 3 3 3 3 2 2
7 6 4 4 5 5 6 6 5 6 6 8 9 11 12 13 13 13 12 10 8 5 5 6 8 10 11 12 12 12 12 11 10 9 8 7 5 5 4 4 3 3 3 3 3 2 2 2 2
6 5 3 5 5 4 5 6 5 5 6 8 9 10 12 13 14 13 12 11 9 6 6 7 8 10 11 12 12 12 13 12 11 10 9 8 6 5 4 4 3 3 3 2 2 2 2 2 2
6 4 4 5 5 4 5 5 5 5 6 8 9 10 12 13 14 13 13 11 9 7 6 7 9 11 12 12 13 13 14 13 12 11 10 9 7 6 5 4 3 3 3 2 2 2 2 2 2
6 5 5 6 5 5 5 5 5 6 6 7 9 11 13 13 13 14 13 12 10 8 6 8 10 11 13 14 14 15 14 14 14 12 11 9 8 6 5 5 4 3 3 2 2 2 2 2 2
6 6 6 7 7 6 4 4 5 6 7 7 9 11 13 13 13 13 13 12 10 8 8 8 9 11 13 15 16 16 16 15 15 14 13 11 9 8 7 6 5 4 3 2 2 2 2 2 2
7 7 8 8 7 6 4 5 6 8 7 8 9 11 13 13 13 13 14 13 11 9 9 8 10 12 12 15 17 17 16 16 16 15 14 13 11 10 8 7 6 5 4 3 2 2 2 2 3
8 8 9 9 8 7 6 6 8 9 9 9 10 11 12 13 13 13 13 13 11 10 9 8 7 9 12 15 17 17 17 17 17 17 15 14 13 11 10 8 7 6 5 4 3 3 3 3 3
9 10 10 11 10 8 7 8 10 10 10 10 11 11 12 13 13 13 13 12 11 11 10 7 6 8 10 13 16 17 18 17 18 18 16 15 14 13 11 10 8 7 6 5 4 3 3 3 3
10 11 11 12 10 10 9 9 11 11 11 11 11 12 13 13 13 13 13 12 11 11 10 7 7 8 9 11 14 15 17 18 18 18 18 17 16 15 13 11 10 9 8 6 5 4 4 3 3
12 12 12 12 12 11 10 11 12 12 12 12 13 13 14 14 14 14 13 12 12 11 10 8 7 7 9 11 13 14 17 18 19 19 18 18 17 16 15 13 12 10 9 7 6 5 4 4 3
13 13 12 12 12 11 11 11 12 13 13 13 14 14 14 14 13 13 12 12 11 10 10 9 8 8 9 10 13 13 15 18 19 19 19 18 17 16 16 15 13 12 10 9 8 7 6 5 5
14 13 13 14 13 12 11 12 13 14 14 14 14 14 14 13 12 12 12 12 11 10 9 9 8 7 7 9 10 12 13 15 17 18 18 18 17 17 16 16 15 13 12 10 9 8 8 7 6
15 14 15 15 13 13 12 12 13 14 14 14 13 13 13 13 12 12 12 11 11 10 10 9 7 7 7 8 9 11 12 14 15 16 17 18 18 18 16 16 16 14 13 11 10 9 9 9 8
17 16 16 15 13 13 13 10 13 14 14 14 13 12 12 12 12 12 12 11 11 10 10 9 8 7 7 7 8 10 12 13 14 15 17 17 18 18 18 17 16 15 14 13 11 11 11 10 10
18 18 16 15 14 14 14 11 11 14 12 12 12 11 10 10 11 11 11 11 11 10 10 9 9 8 7 7 8 10 11 13 14 15 16 17 18 18 18 18 17 16 16 14 13 12 12 12 12
19 17 16 15 14 14 13 12 10 12 12 11 11 10 10 10 10 10 10 10 10 9 8 8 8 7 7 7 8 10 11 12 13 14 16 17 18 19 20 19 18 17 17 16 15 14 14 14 14
18 16 15 14 13 13 14 12 12 12 12 11 11 10 10 10 10 9 9 10 9 9 8 9 8 7 7 7 8 10 11 11 12 14 15 16 18 19 20 20 19 19 18 18 17 17 16 16 16
18 17 15 13 12 12 15 12 12 12 11 10 9 9 9 9 8 8 9 9 8 8 8 8 7 7 7 8 8 9 11 12 13 14 15 16 17 19 20 20 20 20 20 20 19 19 18 18 17
20 18 17 16 15 13 13 13 11 11 10 9 8 8 8 8 8 8 8 7 7 8 8 8 7 7 7 8 8 10 11 12 13 15 15 16 16 18 19 20 21 21 22 21 21 20 20 20 20
20 20 19 17 14 12 12 11 10 10 9 8 8 8 8 8 8 8 8 8 8 8 8 8 8 8 7 8 9 9 11 12 13 14 15 16 16 17 19 20 20 21 22 23 23 22 22 21 21
21 20 19 17 16 12 10 11 11 10 9 9 9 9 9 9 9 8 9 9 9 9 8 8 7 7 7 8 9 9 10 11 13 14 14 15 16 18 20 20 21 21 21 22 21 21 21 21 22
21 20 20 18 17 15 12 12 13 10 9 10 10 10 10 10 10 9 9 10 10 10 9 8 8 8 8 9 9 10 10 11 12 13 14 15 15 16 18 19 20 20 21 21 22 22 21 21 22